"Pseudo-MPEC" for P10MiCO

Created 2019 Feb 15 22:18:10 UT using Find_Orb

Click here for an explanation of pseudo-MPECs

 
 Astrometry: 
     P10MiCO  C2019 02 09w-`Astrometry)S:uZo]QsK/A0redacted;wZ*y[r^X#tC\e8LbFF51
     P10MiCO  C2019 02 092kS@click3uWdn\Mil$$P#9H;q5here:bS5S!a`([s#88LNe;ujsF51
     P10MiCO  C2019 02 09KG2Ncfor)TRxp-++I^a1DilqF_/rexplanation3Ohbsa4@tb]WpF51

Station data:
(F51) Pan-STARRS 1, Haleakala  (N20.707235 W156.255910)  US/Hawaii.
   Observers N. Primak, A. Schultz, S. Watters, J. Thiel, T. Goggia. Measurer
   PS1 Science Consortium. 1.8-m Ritchey-Chrétien + CCD.

Orbital elements:  P10MiCO
   Perihelion 2018 Sep 29.783737 +/- 165 TT = 18:48:34 (JD 2458391.283737)
Epoch 2019 Feb  9.0 TT = JDT 2458523.5   Earth MOID: 0.3159   Ma: 0.0231
M  82.84719541 +/- 90               (J2000 ecliptic)          AutoNEOCP
n   0.62660366 +/- 0.356            Peri.  309.91735 +/- 90
a   1.35251085 +/- 0.512            Node   108.37066 +/- 60
e   0.0489485 +/- 0.278             Incl.    8.63461 +/- 24
P   1.57/574.51d           H 22.4   G  0.15   U 12.0  SR
q 1.28630747 +/- 0.811    Q 1.41871423 +/- 33.2
From 3 observations 2019 Feb. 9 (34.5 min); mean residual 0".06
Residuals in arcseconds: 
190209 F51  .00   .06-    190209 F51  .00   .12+    190209 F51  .00   .06-    

Ephemerides (geocentric):
Date (UTC) HH   RA              Dec         delta   r     elong  mag " sig PA
---- -- -- --  -------------   -----------  ------ ------ -----  --- ---- ---
2019 02 15 22  11 27 06.595   +26 01 15.46  .39201 1.3525 154.7 22.0  33d 164
2019 02 15 23  11 27 04.399   +26 02 19.35  .39198 1.3525 154.7 22.0  33d 164
2019 02 16 00  11 27 02.197   +26 03 23.21  .39196 1.3526 154.7 22.0  33d 164
2019 02 16 01  11 26 59.990   +26 04 27.05  .39193 1.3526 154.7 22.0  33d 163
2019 02 16 02  11 26 57.778   +26 05 30.86  .39190 1.3526 154.8 22.0  33d 163
2019 02 16 03  11 26 55.559   +26 06 34.64  .39187 1.3526 154.8 22.0  33d 163
2019 02 16 04  11 26 53.335   +26 07 38.40  .39185 1.3527 154.8 22.0  33d 163
2019 02 16 05  11 26 51.106   +26 08 42.13  .39182 1.3527 154.8 22.0  33d 163
2019 02 16 06  11 26 48.871   +26 09 45.83  .39179 1.3527 154.8 22.0  33d 163
2019 02 16 07  11 26 46.630   +26 10 49.50  .39177 1.3528 154.9 22.0  33d 163
2019 02 16 08  11 26 44.384   +26 11 53.14  .39174 1.3528 154.9 22.0  33d 163
2019 02 16 09  11 26 42.132   +26 12 56.75  .39171 1.3528 154.9 22.0  33d 163
2019 02 16 10  11 26 39.875   +26 14 00.34  .39169 1.3529 154.9 22.0  33d 163
2019 02 16 11  11 26 37.612   +26 15 03.89  .39166 1.3529 155.0 22.0  33d 163
2019 02 16 12  11 26 35.343   +26 16 07.42  .39164 1.3529 155.0 22.0  33d 163
2019 02 16 13  11 26 33.069   +26 17 10.92  .39161 1.3529 155.0 22.0  33d 163
2019 02 16 14  11 26 30.790   +26 18 14.38  .39159 1.3530 155.0 22.0  33d 163
2019 02 16 15  11 26 28.505   +26 19 17.82  .39156 1.3530 155.0 22.0  33d 163
2019 02 16 16  11 26 26.215   +26 20 21.23  .39154 1.3530 155.1 22.0  33d 163
2019 02 16 17  11 26 23.919   +26 21 24.60  .39151 1.3531 155.1 22.0  33d 163
2019 02 16 18  11 26 21.618   +26 22 27.95  .39149 1.3531 155.1 22.0  33d 163
2019 02 16 19  11 26 19.311   +26 23 31.27  .39147 1.3531 155.1 22.0  33d 163
2019 02 16 20  11 26 16.998   +26 24 34.55  .39144 1.3532 155.1 22.0  33d 163
2019 02 16 21  11 26 14.681   +26 25 37.80  .39142 1.3532 155.2 22.0  33d 163
2019 02 16 22  11 26 12.358   +26 26 41.03  .39140 1.3532 155.2 22.0  33d 163
2019 02 16 23  11 26 10.029   +26 27 44.22  .39138 1.3532 155.2 22.0  33d 163
2019 02 17 00  11 26 07.695   +26 28 47.38  .39135 1.3533 155.2 22.0  33d 163
2019 02 17 01  11 26 05.356   +26 29 50.50  .39133 1.3533 155.2 22.0  33d 163
2019 02 17 02  11 26 03.011   +26 30 53.60  .39131 1.3533 155.3 22.0  33d 163
2019 02 17 03  11 26 00.661   +26 31 56.66  .39129 1.3534 155.3 22.0  33d 163
2019 02 17 04  11 25 58.305   +26 32 59.69  .39127 1.3534 155.3 22.0  33d 163
2019 02 17 05  11 25 55.944   +26 34 02.69  .39125 1.3534 155.3 22.0  33d 163
2019 02 17 06  11 25 53.578   +26 35 05.65  .39123 1.3535 155.3 22.0  33d 163
2019 02 17 07  11 25 51.206   +26 36 08.58  .39121 1.3535 155.4 22.0  33d 163
2019 02 17 08  11 25 48.829   +26 37 11.48  .39119 1.3535 155.4 22.0  33d 163
2019 02 17 09  11 25 46.446   +26 38 14.34  .39117 1.3535 155.4 22.0  33d 163
2019 02 17 10  11 25 44.059   +26 39 17.17  .39115 1.3536 155.4 22.0  33d 163
2019 02 17 11  11 25 41.666   +26 40 19.97  .39113 1.3536 155.4 22.0  33d 163
2019 02 17 12  11 25 39.267   +26 41 22.73  .39111 1.3536 155.5 22.0  33d 163
2019 02 17 13  11 25 36.864   +26 42 25.46  .39109 1.3537 155.5 22.0  33d 163
2019 02 17 14  11 25 34.455   +26 43 28.15  .39107 1.3537 155.5 22.0  33d 163
2019 02 17 15  11 25 32.040   +26 44 30.81  .39105 1.3537 155.5 22.0  33d 163
2019 02 17 16  11 25 29.621   +26 45 33.44  .39103 1.3538 155.5 22.0  33d 163
2019 02 17 17  11 25 27.196   +26 46 36.02  .39102 1.3538 155.6 22.0  33d 163
2019 02 17 18  11 25 24.766   +26 47 38.58  .39100 1.3538 155.6 22.0  33d 163
2019 02 17 19  11 25 22.331   +26 48 41.09  .39098 1.3539 155.6 22.0  33d 163
2019 02 17 20  11 25 19.890   +26 49 43.58  .39096 1.3539 155.6 22.0  33d 163
2019 02 17 21  11 25 17.444   +26 50 46.02  .39095 1.3539 155.6 22.0  33d 163